Regional Weather Roundup
Issued by NWS Charleston, SC

Current Version | Previous Version | Graphics & Text | Print | Product List | Glossary On
Versions: 1 2 3 4 5 6 7 8 9 10 11 12 13 14 15 16 17 18 19 20 21 22 23 24 25 26 27 28 29 30 31 32 33 34 35 36 37 38 39 40 41 42 43 44 45 46 47 48 49 50
000 ASUS42 KCHS 140011 RWRCHS REGIONAL WEATHER ROUNDUP NATIONAL WEATHER SERVICE CHARLESTON SC 700 PM EST WED DEC 13 2017 NOTE: "FAIR" INDICATES FEW OR NO CLOUDS BELOW 12,000 FEET WITH NO SIGNIFICANT WEATHER AND/OR OBSTRUCTIONS TO VISIBILITY. NOT ALL STATIONS ARE QUALITY CONTROLLED. USE DATA WITH CAUTION... ESPECIALLY DEWPOINT OBSERVATIONS. SCZ027-030-031-034>040-042>050-140100- ...SOUTHEAST SOUTH CAROLINA... CITY SKY/WX TMP DP RH WIND PRES REMARKS N CHARLESTON PTCLDY 40 28 62 S9 29.95F WCI 34 6HR MIN TEMP: 40; 6HR MAX TEMP: 51; WATERFRONT PRK N/A 45 32 60 SW6 29.82R JOHNS ISLAND FAIR 43 30 61 SW5 29.96F PINOPOLIS N/A 45 27 49 SW6 29.86S MONCKS CORNER FAIR 39 23 52 SW5 29.94S WCI 36 SUMMERVILLE FAIR 41 27 56 S3 29.95F BEAUFORT MCAS CLEAR 40 29 64 SW3 29.96F 6HR MIN TEMP: 40; 6HR MAX TEMP: 52; BEAUFORT ARPT FAIR 45 34 65 S6 29.96F HILTON HEAD IS NOT AVBL WALTERBORO PTCLDY 39 27 60 SW5 29.95F WCI 36 ALLENDALE FAIR 43 23 45 S5 29.92F ...SOUTHERN MIDLANDS AND PEE DEE... CITY SKY/WX TMP DP RH WIND PRES REMARKS GEORGETOWN FAIR 37 30 75 SW5 29.95S WCI 34 KINGSTREE FAIR 37 23 56 CALM 29.92F ORANGEBURG CLEAR 40 22 48 S8 29.90F WCI 34 6HR MIN TEMP: 39; 6HR MAX TEMP: 49; BARNWELL N/A 45 23 42 CALM 29.91F AIKEN FAIR 41 21 45 S7 29.92S MANNING FAIR 43 23 45 MISG 29.91F COLUMBIA CLEAR 43 21 41 SW6 29.88F 6HR MIN TEMP: 42; 6HR MAX TEMP: 51; SUMTER CLEAR 40 20 45 S7 29.86F WCI 35 6HR MIN TEMP: 40; 6HR MAX TEMP: 50; FLORENCE PTCLDY 41 21 44 S7 29.90S 6HR MIN TEMP: 41; 6HR MAX TEMP: 48; MYRTLE BEACH PTCLDY 42 20 41 SW6 29.94R N MYRTLE BEACH CLEAR 43 20 39 SW8 29.92R 6HR MIN TEMP: 42; 6HR MAX TEMP: 49; $$ GAZ063-065-086>088-099>101-113>116-118-119-134>141-150-140100- ...SOUTHEAST GEORGIA... CITY SKY/WX TMP DP RH WIND PRES REMARKS SAVANNAH ARPT CLEAR 40 28 62 S6 29.97F WCI 36 6HR MIN TEMP: 40; 6HR MAX TEMP: 53; HUNTER AAF CLEAR 44 32 64 S3 29.96F 6HR MIN TEMP: 44; 6HR MAX TEMP: 52; FORT STEWART CLEAR 42 30 64 CALM 29.96 6HR MIN TEMP: 41; 6HR MAX TEMP: 54; STATESBORO CLEAR 40 28 63 S3 29.95S SYLVANIA CLEAR 43 29 58 SW3 29.95F CLAXTON FAIR 40 33 77 CALM 29.97S ...CSRA...CENTRAL AND FAR SOUTHEAST GEORGIA... CITY SKY/WX TMP DP RH WIND PRES REMARKS THOMSON CLEAR 38 24 58 W6 29.94F WCI 33 AUGUSTA-BUSH CLEAR 37 26 64 SW6 29.92S WCI 32 6HR MIN TEMP: 37; 6HR MAX TEMP: 52; AUGUSTA-DANIEL CLEAR 45 20 36 SW3 29.91S SWAINSBORO FAIR 43 27 52 NW3 29.95S VIDALIA CLEAR 43 30 61 SW5 29.96S EASTMAN FAIR 42 15 33 SW5 29.99S HAZLEHURST FAIR 44 20 37 SW5 29.97S ALMA CLEAR 41 31 67 S5 29.99S HAZE 6HR MIN TEMP: 40; 6HR MAX TEMP: 55; WAYCROSS CLEAR 43 27 54 SW3 30.00S JESUP NOT AVBL BAXLEY FAIR 41 27 56 SW3 29.98S BRUNSWICK CLEAR 43 32 65 SW5 30.01R SAINT SIMONS CLEAR 49 34 56 SW7 30.00S 6HR MIN TEMP: 48; 6HR MAX TEMP: 55; $$ SCZ027-028-034-036>038-045-046-048>050-GAZ119-141-140100- ...LAKE AND SUPPLEMENTAL COASTAL OBSERVATIONS... STATION/POSITION TIME TEMP WIND PRES WAVE SWELL AIR SEA DIR/SP/G HT/PER HT/PER/DIR (UTC) (F) (DEG/KT/KT) (MB) (FT/S) (FT/S/D) WINYAH BAY 2245 45 220/ 6 1013.0 LAKE MURRAY 2320 48 210/ 15/ 19 1010.5F ACE BASIN NERRS 2245 45 180/ 1 1015.0 FORT PULASKI 2348 47 54 230/ 4/ 7 1015.2F SAPELO ISLAND 2300 51 230/ 7 1016.0 $$ ANZ835-935-AMZ111-154-330-350-352-354-370-450-454-472-140100- ...C-MAN AND BUOY OBSERVATIONS... STATION/POSITION TIME TEMP WIND PRES WAVE SWELL AIR SEA DIR/SP/G HT/PER HT/PER/DIR (UTC) (F) (DEG/KT/KT) (MB) (FT/S) (FT/S/D) BUOY 41004 2350 74 230/ 16/ 21 1014.0F 2/ 6 BUOY 41008 2350 53 60 210/ 14/ 16 1015.4F 1/ 3 FOLLY BEACH CMAN 2300 45 230/ 7/ 9 1015.0R CAPERS NEARSHORE 2308 45 56 240/ 14/ 21 1013.8R FRIPP NEARSHORE 2308 46 57 210/ 10/ 19 1014.2F STATION/POSITION TIME TEMP WIND PRES WAVE SWELL AIR SEA DIR/SP/G HT/PER HT/PER/DIR (UTC) (F) (DEG/KT/KT) (MB) (FT/S) (FT/S/D) 5E ST. MARYS GA 2330 62 N/A 2/ 2 FRYING PAN BUOY 2350 50 62 240/ 10/ 16 1013.3R 2/ 8 2/140/ 8 BUOY 41025 2350 45 74 260/ 10/ 16 1012.3F 4/ 8 3/200/ 8 CAPE LOOKOUT NC 2300 250/ 4/ 6 1012.7F BUOY 41002 2250 58 75 270/ 12/ 16 1014.0 11/10 10/330/10 BUOY 41010 NOT AVBL ST AUGUSTINE FL 0000 51 62 230/ 4/ 5 1017.5R $$

USA.gov is the U.S. government's official web portal to all federal, state and local government web resources and services.